GW7168 Weather Reports


Display with metric or nautical units.
time (UTC)temp
F
wind
direction
speed
MPH
gust
MPH
rain 1hr
in
rain 24hr
in
rain mn
in
humidity
%
barometer
mb
20260503191013 75 275 0.0 3.0 0.00 0.00 0.00 41 1014.1
20260503190505 75 273 1.0 3.0 0.00 0.00 0.00 43 1014.1
20260503190015 74 237 1.0 4.0 0.00 0.00 0.00 43 1014.2
20260503185509 74 278 2.0 5.0 0.00 0.00 0.00 43 1014.2
20260503185003 73 203 2.0 5.0 0.00 0.00 0.00 44 1014.4
20260503184509 73 268 0.0 3.0 0.00 0.00 0.00 44 1014.4
20260503184004 72 297 1.0 6.0 0.00 0.00 0.00 43 1014.5
20260503183509 72 294 2.0 5.0 0.00 0.00 0.00 46 1014.5
20260503183008 71 182 1.0 5.0 0.00 0.00 0.00 48 1014.6
20260503182509 71 352 0.0 3.0 0.00 0.00 0.00 49 1014.7
20260503182009 70 300 0.0 4.0 0.00 0.00 0.00 48 1014.7
20260503181524 70 278 0.0 4.0 0.00 0.00 0.00 50 1014.7
20260503181006 69 244 0.0 3.0 0.00 0.00 0.00 52 1014.6
20260503180507 68 330 1.0 3.0 0.00 0.00 0.00 52 1014.7
20260503180029 67 194 2.0 3.0 0.00 0.00 0.00 53 1014.7
20260503175504 67 269 0.0 3.0 0.00 0.00 0.00 53 1014.9
20260503175008 66 350 1.0 3.0 0.00 0.00 0.00 53 1015.0
20260503174523 66 302 0.0 2.0 0.00 0.00 0.00 55 1014.9
20260503174007 65 188 0.0 4.0 0.00 0.00 0.00 54 1015.0
20260503173507 65 352 0.0 4.0 0.00 0.00 0.00 55 1015.0
20260503173027 65 262 1.0 3.0 0.00 0.00 0.00 55 1015.1
20260503172509 64 335 1.0 3.0 0.00 0.00 0.00 55 1015.1
20260503172012 64 320 2.0 3.0 0.00 0.00 0.00 56 1015.1
20260503171519 63 306 0.0 2.0 0.00 0.00 0.00 58 1015.2
20260503171011 62 278 1.0 2.0 0.00 0.00 0.00 56 1015.2
20260503170509 62 183 1.0 2.0 0.00 0.00 0.00 62 1015.2
20260503151010 51 82 0.0 0.0 0.00 0.00 0.00 89 1016.1
20260503150509 50 82 0.0 0.0 0.00 0.00 0.00 89 1016.2
20260503131005 49 82 0.0 0.0 0.00 0.00 0.00 89 1016.1
20260503130510 49 82 0.0 0.0 0.00 0.00 0.00 88 1016.1
20260503110512 51 82 0.0 0.0 0.00 0.00 0.00 86 1016.0
20260503090509 53 82 0.0 0.0 0.00 0.00 0.00 80 1016.3
20260503081537 54 63 0.0 0.0 0.00 0.00 0.00 78 1016.1
20260503081009 55 63 0.0 0.0 0.00 0.00 0.00 79 1016.1
20260503080508 55 63 0.0 0.0 0.00 0.00 0.00 79 1016.2
20260503072512 56 63 0.0 0.0 0.00 0.00 0.00 76 1016.2
20260503072012 56 63 0.0 0.0 0.00 0.00 0.00 76 1016.2
20260503071536 57 63 0.0 0.0 0.00 0.00 0.00 74 1016.2
20260503071006 57 63 0.0 0.0 0.00 0.00 0.00 75 1016.2
20260503070511 57 45 0.0 0.0 0.00 0.00 0.00 73 1016.1
20260503055008 61 13 0.0 0.0 0.00 0.00 0.00 70 1015.9
20260503054532 61 13 0.0 0.0 0.00 0.00 0.00 68 1015.8
20260503054006 62 13 0.0 0.0 0.00 0.00 0.00 67 1015.9
20260503053505 62 13 0.0 0.0 0.00 0.00 0.00 66 1015.9
20260503053022 62 13 0.0 0.0 0.00 0.00 0.00 62 1015.9
20260503052508 63 13 0.0 0.0 0.00 0.00 0.00 64 1015.8
20260503052007 63 13 0.0 0.0 0.00 0.00 0.00 60 1015.8
20260503051529 63 53 0.0 0.0 0.00 0.00 0.00 62 1015.8
20260503051008 64 76 0.0 0.0 0.00 0.00 0.00 61 1015.7
20260503050503 64 76 0.0 0.0 0.00 0.00 0.00 59 1015.7
20260503050017 65 76 0.0 0.0 0.00 0.00 0.00 57 1015.7
20260503045508 65 76 0.0 0.0 0.00 0.00 0.00 57 1015.6
20260503045011 65 76 0.0 2.0 0.00 0.00 0.00 55 1015.6
20260503044510 65 76 0.0 2.0 0.00 0.00 0.00 55 1015.6
20260503044009 65 63 0.0 2.0 0.00 0.00 0.00 55 1015.7
20260503043513 65 63 0.0 2.0 0.00 0.00 0.00 57 1015.6
20260503043006 65 63 0.0 2.0 0.00 0.00 0.00 57 1015.5
20260503042506 65 63 0.0 2.0 0.00 0.00 0.00 57 1015.5
20260503042006 65 50 0.0 2.0 0.00 0.00 0.00 57 1015.6
20260503041530 65 88 0.0 2.0 0.00 0.00 0.00 59 1015.5
20260503041005 66 98 0.0 2.0 0.00 0.00 0.00 57 1015.4
20260503040507 66 80 0.0 2.0 0.00 0.00 0.00 58 1015.4
20260503040024 67 82 0.0 2.0 0.00 0.00 0.00 55 1015.3
20260503035509 68 105 0.0 2.0 0.00 0.00 0.00 58 1015.4
20260503035006 68 105 1.0 1.0 0.00 0.00 0.00 57 1015.4
20260503034520 69 105 0.0 2.0 0.00 0.00 0.00 55 1015.3
20260503034011 69 105 0.0 2.0 0.00 0.00 0.00 54 1015.2
20260503033503 70 352 1.0 2.0 0.00 0.00 0.00 49 1015.2
20260503033018 71 119 0.0 2.0 0.00 0.00 0.00 49 1015.1
20260503032509 71 119 0.0 2.0 0.00 0.00 0.00 50 1015.1
20260503032010 72 112 0.0 2.0 0.00 0.00 0.00 48 1015.0
20260503031513 73 185 1.0 2.0 0.00 0.00 0.00 42 1015.0
20260503031007 74 34 0.0 3.0 0.00 0.00 0.00 40 1014.9
20260503030511 75 42 0.0 3.0 0.00 0.00 0.00 43 1014.8
20260503030033 75 69 0.0 2.0 0.00 0.00 0.00 39 1014.9
20260503025508 76 112 1.0 2.0 0.00 0.00 0.00 41 1014.8
20260503025007 77 30 0.0 2.0 0.00 0.00 0.00 35 1014.8
20260503024532 78 38 0.0 2.0 0.00 0.00 0.00 38 1014.7
20260503024010 78 49 0.0 2.0 0.00 0.00 0.00 37 1014.7
20260503023507 78 90 0.0 3.0 0.00 0.00 0.00 37 1014.7
20260503023025 78 348 0.0 3.0 0.00 0.00 0.00 34 1014.7
20260503022507 79 82 1.0 3.0 0.00 0.00 0.00 34 1014.7
20260503022006 79 104 1.0 5.0 0.00 0.00 0.00 34 1014.6
20260503021520 79 55 0.0 5.0 0.00 0.00 0.00 31 1014.6
20260503021010 80 40 0.0 4.0 0.00 0.00 0.00 32 1014.6
20260503020507 80 67 1.0 4.0 0.00 0.00 0.00 32 1014.6
20260503020020 80 339 1.0 6.0 0.00 0.00 0.00 30 1014.6
20260503015510 80 86 0.0 6.0 0.00 0.00 0.00 33 1014.7
20260503015012 80 81 1.0 5.0 0.00 0.00 0.00 32 1014.7
20260503014516 80 57 0.0 6.0 0.00 0.00 0.00 30 1014.8
20260503014010 80 95 2.0 8.0 0.00 0.00 0.00 30 1014.8
20260503013509 80 71 2.0 8.0 0.00 0.00 0.00 32 1014.8
20260503013034 80 67 0.0 3.0 0.00 0.00 0.00 32 1014.9
20260503012508 81 84 2.0 3.0 0.00 0.00 0.00 30 1014.9
20260503012011 0 76 1.0 5.0 0.00 0.00 0.00 30 1014.9
20260503011528 81 59 1.0 4.0 0.00 0.00 0.00 29 1014.9
20260503011008 81 65 0.0 8.0 0.00 0.00 0.00 32 1014.9
20260503010507 81 324 1.0 8.0 0.00 0.00 0.00 29 1014.9
20260503010028 81 48 1.0 6.0 0.00 0.00 0.00 31 1014.9
20260503005511 81 24 1.0 6.0 0.00 0.00 0.00 30 1015.0
20260503005008 81 58 0.0 4.0 0.00 0.00 0.00 32 1015.0
20260503004525 81 90 1.0 8.0 0.00 0.00 0.00 29 1015.0
20260503004008 82 95 1.0 8.0 0.00 0.00 0.00 31 1015.0
20260503003506 82 76 2.0 6.0 0.00 0.00 0.00 29 1015.0
20260503003027 81 80 1.0 9.0 0.00 0.00 0.00 31 1015.0
20260503002507 82 76 2.0 9.0 0.00 0.00 0.00 29 1015.1
20260503002010 82 12 4.0 10.0 0.00 0.00 0.00 28 1015.0
20260503001519 82 352 2.0 10.0 0.00 0.00 0.00 30 1015.1
20260503001007 82 48 1.0 12.0 0.00 0.00 0.00 30 1015.1
20260503000511 82 350 2.0 11.0 0.00 0.00 0.00 28 1015.2
20260503000003 82 350 4.0 10.0 0.00 0.00 0.00 31 1015.1
20260502235504 82 77 2.0 10.0 0.00 0.00 0.00 29 1015.1
20260502235003 81 57 2.0 8.0 0.00 0.00 0.00 30 1015.2
20260502234519 81 78 2.0 6.0 0.00 0.00 0.00 30 1015.2
20260502234004 81 82 2.0 5.0 0.00 0.00 0.00 32 1015.2
20260502233503 81 84 2.0 7.0 0.00 0.00 0.00 30 1015.2
20260502233010 81 42 3.0 9.0 0.00 0.00 0.00 30 1015.3
20260502232459 81 78 1.0 9.0 0.00 0.00 0.00 32 1015.5
20260502232003 81 71 2.0 9.0 0.00 0.00 0.00 31 1015.6
20260502231507 81 15 2.0 8.0 0.00 0.00 0.00 30 1015.7
20260502231006 81 348 1.0 11.0 0.00 0.00 0.00 31 1015.6
20260502230503 81 303 2.0 14.0 0.00 0.00 0.00 32 1015.7
20260502230008 81 345 2.0 14.0 0.00 0.00 0.00 31 1015.8
20260502225503 81 340 5.0 14.0 0.00 0.00 0.00 30 1015.8
20260502225007 81 36 2.0 8.0 0.00 0.00 0.00 31 1015.9
20260502224524 81 130 1.0 9.0 0.00 0.00 0.00 33 1016.0
20260502224004 81 96 2.0 9.0 0.00 0.00 0.00 33 1016.1
20260502223507 81 360 5.0 8.0 0.00 0.00 0.00 32 1016.1
20260502223005 81 42 1.0 6.0 0.00 0.00 0.00 35 1016.1
20260502222504 81 14 3.0 10.0 0.00 0.00 0.00 35 1016.2
20260502222006 80 21 1.0 10.0 0.00 0.00 0.00 35 1016.3
20260502221516 80 352 3.0 10.0 0.00 0.00 0.00 35 1016.4
20260502221003 80 17 4.0 10.0 0.00 0.00 0.00 34 1016.3
20260502220503 81 24 2.0 9.0 0.00 0.00 0.00 33 1016.3
20260502220019 81 41 2.0 10.0 0.00 0.00 0.00 34 1016.3
20260502215503 81 333 1.0 10.0 0.00 0.00 0.00 32 1016.3
20260502215004 81 5 2.0 8.0 0.00 0.00 0.00 34 1016.3
20260502214509 80 5 3.0 8.0 0.00 0.00 0.00 32 1016.3
20260502214007 81 5 2.0 8.0 0.00 0.00 0.00 32 1016.3
20260502213504 80 360 1.0 8.0 0.00 0.00 0.00 31 1016.4
20260502213019 80 342 3.0 8.0 0.00 0.00 0.00 32 1016.4
20260502212508 79 5 2.0 5.0 0.00 0.00 0.00 31 1016.5
20260502212008 79 157 1.0 9.0 0.00 0.00 0.00 31 1016.6
20260502211505 80 51 3.0 9.0 0.00 0.00 0.00 32 1016.5
20260502211007 79 20 3.0 9.0 0.00 0.00 0.00 35 1016.6
20260502210506 79 71 0.0 6.0 0.00 0.00 0.00 35 1016.6
20260502210004 79 101 1.0 6.0 0.00 0.00 0.00 36 1016.6
20260502205504 79 93 1.0 8.0 0.00 0.00 0.00 33 1016.7
20260502205008 78 15 2.0 9.0 0.00 0.00 0.00 33 1016.6
20260502204520 78 324 2.0 9.0 0.00 0.00 0.00 37 1016.7
20260502204006 78 5 3.0 8.0 0.00 0.00 0.00 35 1016.7
20260502203505 78 9 1.0 6.0 0.00 0.00 0.00 38 1016.8
20260502203020 78 327 3.0 8.0 0.00 0.00 0.00 35 1016.9
20260502202507 77 331 1.0 8.0 0.00 0.00 0.00 39 1017.0
20260502202004 77 5 3.0 5.0 0.00 0.00 0.00 39 1017.0
20260502201524 76 342 2.0 9.0 0.00 0.00 0.00 42 1017.0
20260502201008 75 340 4.0 9.0 0.00 0.00 0.00 40 1017.1
20260502200504 75 19 2.0 5.0 0.00 0.00 0.00 42 1017.1
20260502200010 75 360 1.0 8.0 0.00 0.00 0.00 43 1017.2
20260502195508 75 32 3.0 8.0 0.00 0.00 0.00 42 1017.3
20260502195009 75 5 2.0 6.0 0.00 0.00 0.00 43 1017.3
20260502194510 74 19 2.0 6.0 0.00 0.00 0.00 44 1017.4
20260502194006 74 9 2.0 6.0 0.00 0.00 0.00 45 1017.4
20260502193508 74 55 2.0 6.0 0.00 0.00 0.00 47 1017.5
20260502193006 74 342 2.0 6.0 0.00 0.00 0.00 45 1017.5
20260502192506 73 352 2.0 7.0 0.00 0.00 0.00 47 1017.5
20260502192009 73 342 4.0 8.0 0.00 0.00 0.00 47 1017.5
20260502191528 72 347 4.0 8.0 0.00 0.00 0.00 48 1017.6